Dewpoint
59 59 59 60 60 61 62 62 62 62 63 64 64 64 65 65 63 60 59 59 58 61 58 50 46 41 44 40 40 37 38 37 38 34 32 34 40 41 45 46 50 51 48 52 59
58 58 59 59 59 60 61 62 62 62 63 64 64 64 64 63 61 58 62 62 61 60 50 47 45 44 43 42 40 37 36 37 36 34 33 34 35 39 43 45 47 49 54 56 61
57 57 58 58 59 59 60 61 60 61 62 63 64 63 64 62 57 57 61 62 62 58 50 48 45 43 42 43 40 38 32 37 34 31 30 33 35 41 40 42 42 44 48 56 60
58 57 58 58 58 59 59 60 60 61 61 62 63 63 61 61 49 57 63 63 63 51 48 46 43 42 42 41 41 37 37 37 37 31 32 35 36 38 41 37 41 44 48 56 58
57 57 57 57 58 58 58 60 60 60 60 61 62 61 60 55 55 61 63 61 54 50 46 45 43 42 40 41 39 41 41 38 38 38 37 32 34 35 37 41 40 42 51 54 57
56 57 56 57 57 58 58 59 59 59 60 60 61 62 57 50 60 61 60 59 55 49 48 46 44 44 42 41 40 41 41 41 40 35 32 32 33 29 30 33 39 46 47 52 55
57 56 56 56 57 57 57 58 59 59 59 60 61 60 54 50 58 61 57 56 57 56 51 52 50 44 46 44 45 43 40 41 40 42 38 30 33 31 33 34 34 42 45 50 54
57 56 56 56 56 56 57 57 58 59 59 60 61 57 48 56 58 59 58 57 58 57 56 57 53 48 44 42 41 42 42 38 40 38 39 36 39 37 35 33 33 33 39 47 51
55 55 56 55 56 56 57 57 58 59 57 60 58 54 48 58 56 57 57 55 56 56 56 56 54 50 46 40 40 39 36 38 38 37 35 34 40 42 38 33 33 33 34 40 45
54 54 55 55 55 55 56 57 57 57 55 55 54 50 51 51 55 56 56 56 54 54 53 52 51 47 46 42 38 38 36 36 36 37 35 36 35 38 35 35 36 36 34 37 41
54 55 55 55 55 56 56 53 48 46 52 44 46 46 47 54 55 53 56 53 52 49 45 48 43 39 40 44 42 38 36 34 35 37 36 35 35 34 34 36 35 37 36 36 36
53 53 55 55 55 55 53 48 42 43 43 46 47 48 51 52 49 52 55 49 49 44 46 45 39 40 41 45 43 41 38 37 38 38 37 36 35 36 36 37 37 37 37 37 37
53 53 53 55 54 53 49 47 45 45 40 42 45 46 49 50 46 50 52 49 46 44 44 41 41 42 42 43 43 40 39 39 39 42 41 37 35 35 34 35 36 37 38 38 39
50 53 52 55 52 49 48 47 47 45 35 38 42 44 49 48 44 52 52 48 46 42 43 42 42 42 42 41 40 36 39 39 37 37 35 36 31 32 32 31 31 33 35 35 35
50 53 52 54 49 46 47 47 46 44 24 36 40 46 47 44 46 48 53 49 42 41 42 39 42 42 40 40 40 36 41 39 39 37 36 32 34 30 33 33 33 33 33 32 33
50 53 51 51 50 48 48 46 45 31 22 33 39 40 41 42 42 48 49 49 48 43 42 41 42 43 41 41 41 41 41 40 40 38 33 31 30 27 29 31 33 33 33 33 33
50 51 49 48 46 49 48 44 30 26 32 32 35 38 38 37 39 42 42 42 38 36 37 40 40 41 41 40 43 41 37 33 32 32 25 30 31 30 32 33 32 31 31 32 35
50 51 49 47 50 48 46 38 27 30 29 34 32 37 33 37 36 39 39 38 38 38 37 34 33 39 41 38 38 39 35 29 23 26 24 31 28 29 35 35 35 34 33 34 35
50 48 47 49 51 48 41 30 27 30 30 31 31 31 31 34 34 35 35 35 38 38 31 33 31 39 41 40 38 39 36 35 29 25 27 25 28 29 32 31 32 32 34 34 35
46 44 43 48 51 46 37 31 31 29 31 31 28 28 29 33 30 31 32 32 34 39 37 31 29 37 38 40 40 38 39 34 34 29 25 22 25 23 26 27 30 31 32 33 33
44 39 45 47 50 41 32 31 34 32 31 30 28 29 26 30 28 29 29 30 30 36 36 36 31 35 38 37 34 38 38 37 35 35 30 25 22 26 27 27 27 27 30 30 31
40 33 45 47 37 37 33 34 34 33 36 33 30 28 30 29 28 28 29 25 32 30 34 35 33 31 31 38 39 36 36 36 32 29 31 28 25 27 27 26 28 29 30 29 27
35 39 45 47 31 32 35 33 33 33 33 33 33 30 29 29 28 28 28 29 31 33 29 35 31 29 27 32 35 35 35 34 33 35 30 28 23 26 26 28 28 26 28 30 30
39 33 39 41 39 34 33 33 32 35 33 34 34 31 30 31 32 30 29 32 33 33 39 37 30 27 20 20 25 28 31 34 34 31 29 29 27 27 27 29 32 32 34 34 34
36 32 32 30 34 34 32 32 32 31 33 33 33 30 31 29 30 30 31 32 34 36 35 33 31 27 27 26 31 33 34 31 30 32 27 27 28 29 31 31 32 33 35 35 35
33 33 35 34 35 32 33 31 31 32 31 29 31 31 31 30 29 30 30 30 29 35 34 36 33 31 30 28 29 28 28 30 34 36 36 36 35 36 34 34 34 35 36 36 35
37 37 39 34 34 32 32 32 31 31 30 31 33 31 32 33 33 33 32 34 36 32 32 33 33 31 26 30 30 28 28 26 26 26 31 30 32 32 30 30 28 27 28 30 31
Lifted_Index
3 3 3 3 3 2 2 2 1 1 1 0 -0 -1 -1 -2 -2 -2 -2 -2 -1 0 1 1 2 3 3 3 3 3 2 1 1 1 2 2 3 4 4 3 3 3 4 4 3
2 2 2 3 3 2 2 2 1 1 1 0 -0 -1 -1 -1 -1 -1 -2 -2 -1 -0 0 1 2 3 3 3 3 3 2 2 1 1 2 2 3 4 4 3 3 3 3 3 2
1 1 2 2 2 2 2 2 2 1 1 0 -0 -1 -1 -1 -1 -1 -1 -2 -2 -1 -0 1 2 2 3 3 3 3 3 2 2 2 1 2 2 3 3 3 3 3 3 3 2
-0 0 1 1 1 2 2 2 1 1 1 1 0 -0 -1 -1 0 0 -1 -1 -1 -1 -0 0 1 2 2 2 3 3 3 3 3 2 2 1 2 2 3 3 4 4 3 3 2
-1 -0 -0 0 0 1 1 1 1 1 1 1 0 0 -0 0 1 1 0 -0 -1 -1 -0 0 1 1 2 2 2 3 3 3 3 2 2 2 2 2 2 4 4 4 4 3 2
-0 -0 -0 -0 -0 -0 0 0 0 1 1 0 -0 -0 0 1 1 1 1 1 0 -0 0 1 1 1 2 2 2 2 3 3 3 3 2 2 2 2 3 4 4 4 4 3 2
-1 -0 -0 -0 -0 -0 -0 -0 -0 -0 -0 -0 -1 -0 1 1 1 1 1 1 0 0 0 1 1 1 2 2 2 2 2 3 3 3 2 2 3 3 3 4 4 4 4 3 3
-1 -0 -0 -0 -0 -0 -0 -1 -1 -1 -1 -1 -1 -0 1 1 1 1 1 0 0 0 1 1 2 1 2 2 2 2 2 2 3 3 2 2 2 2 3 3 3 3 3 3 3
-0 -0 -0 -0 -0 -0 -0 -1 -1 -1 -1 -1 -1 -0 1 1 1 0 -0 -0 -0 0 1 1 1 1 1 1 2 2 2 2 2 3 3 3 3 2 2 2 2 2 3 3 3
-0 -0 -0 -1 -1 -1 -1 -1 -1 -1 -1 -1 -1 -0 1 1 1 0 -0 -1 -0 0 1 1 1 1 1 1 2 2 2 2 2 3 3 3 3 3 3 3 3 2 3 3 3
-0 -0 -1 -1 -1 -1 -0 -0 0 1 0 0 0 1 1 1 0 -0 -0 -0 -0 1 1 1 1 1 2 2 2 1 1 1 2 3 3 3 4 4 5 5 4 4 3 3 3
-0 -1 -1 -1 -1 -1 -0 1 1 2 1 1 1 1 1 0 0 -0 -0 -0 -0 1 1 2 2 2 2 2 2 1 1 1 2 2 3 3 4 4 5 6 6 5 5 4 4
-1 -1 -0 -0 -1 -0 1 1 2 1 1 1 1 1 0 0 -0 -0 -0 -0 0 1 1 2 2 2 2 2 2 1 1 1 2 2 2 3 3 4 4 5 6 6 6 5 5
-1 -1 -1 -0 0 1 1 1 1 1 1 1 1 1 0 -0 -0 -0 -0 0 0 1 1 1 2 2 2 2 2 2 2 2 2 2 2 3 3 4 4 5 5 6 6 6 6
-1 -1 -1 -0 1 1 1 1 1 1 1 1 1 1 0 -0 -0 -0 0 0 1 1 1 1 1 1 1 1 1 1 2 2 2 2 3 3 4 4 4 4 5 5 5 5 6
-1 -1 -0 0 1 2 1 1 1 1 1 1 1 1 0 0 -0 -0 0 1 1 1 1 1 1 1 1 1 1 1 2 2 2 2 2 3 4 4 4 4 5 4 4 5 6
-1 -1 0 1 1 1 1 1 1 1 2 2 2 1 1 0 0 -0 0 1 1 1 1 1 1 1 1 1 1 1 2 2 1 1 2 3 4 5 5 5 5 4 5 5 6
-1 0 1 2 1 1 1 1 1 1 2 3 2 1 1 0 0 0 0 1 1 1 1 1 1 1 1 1 1 1 1 1 1 1 2 3 4 5 5 5 5 5 5 5 6
-0 1 2 2 1 1 1 1 1 1 2 3 2 2 1 1 1 1 1 1 1 1 1 1 1 2 1 1 1 1 1 1 1 2 2 3 3 4 5 5 5 5 5 6 6
1 1 2 2 2 1 1 1 1 2 2 2 2 2 2 2 2 1 1 1 1 1 1 1 1 2 1 1 1 1 1 1 1 1 1 2 3 4 5 5 5 5 5 6 6
1 2 3 3 2 1 1 1 1 2 3 3 2 2 2 2 2 2 2 2 2 1 1 1 1 2 1 1 1 1 1 1 1 1 1 2 3 4 5 5 5 5 5 6 6
2 2 3 3 2 1 1 1 2 2 3 3 2 2 2 2 2 2 2 3 2 2 1 1 1 2 2 1 1 1 1 1 1 1 2 2 3 5 6 5 5 5 5 5 5
2 2 2 2 1 1 1 1 2 2 3 3 3 3 3 2 2 2 3 3 3 2 2 1 2 2 2 2 2 1 1 1 1 1 2 2 4 5 6 6 6 5 5 5 5
2 1 1 1 1 1 1 2 2 3 3 3 3 3 2 2 2 2 3 3 3 2 2 1 2 2 2 2 2 2 1 1 1 1 2 2 4 5 6 6 5 6 6 6 6
1 1 1 1 1 1 2 2 2 3 3 3 3 2 2 2 2 2 2 3 3 2 2 1 2 2 2 2 2 2 2 1 1 1 2 3 4 4 5 5 5 6 6 6 6
1 1 1 1 1 1 2 2 3 3 3 2 2 2 2 2 2 2 2 2 2 2 1 1 2 2 2 2 2 2 2 2 2 2 2 3 4 4 4 5 6 6 6 6 6
1 1 1 1 1 1 2 3 3 3 2 2 2 2 1 1 1 1 1 1 1 1 1 1 2 2 2 2 2 3 3 3 2 2 2 3 4 5 5 5 6 7 7 7 7